Starlink 31496

operational
NORAD ID: 59211 Int'l Des: 2024-046 Owner: SPXS Country: US Constellation: starlink
LEOCIRCULAR

Über Starlink 31496

Beschreibung wird geladen...

Live-Position

3D-Globus wird geladen...

Nächste Überflüge

Höhenverlauf

Altitude vs Time

uPlot chart will show altitude changes over time

Zweizeiliger Elementsatz

1 59211U 24046L 25303.61872934 .00003925 00000-0 14453-3 0 9996
2 59211 53.1618 26.8338 0001359 92.1440 267.9716 15.30207840 93305
Epoch: 30. Okt. 2025 • Age: 19 hours

Aktueller Status

Höhe 475.7 km
Geschwindigkeit 7.63 km/s
Subsatellitenpunkt 26.02°N, 12.71°W
Startdatum 11. März 2024
Alter 1.6 years
Typ internet

Technische Details

Klassifizierung Payload
Masse 730.00 kg
Trockenmasse 700.00 kg
Gesamtmasse 730.00 kg
Länge 0.30 m
Durchmesser 4.10 m
Spannweite 29.00 m
Form Box + pan
Hersteller SPXS
Bus-Typ Starlink V2M
Phasenstatus In Orbit
Besitzer/Staat SPXS/US

Große Konstellationen

Loading constellations...